Retour au catalogue

GONETS M 17

ActifCommunicationsPO
NORAD 46486·PAYLOAD·🇷🇺 Russia

Lancé Sep 28, 2020 depuis Plesetsk Cosmodrome

Loading…

Prochains Passages (prochaines 24 heures)

TLE

FraisSource: Space-Track

Époque: Sep 14, 2026, 13:28 UTC

1 46486U 20068A   26257.56173074  .00000013  00000-0  25991-4 0  9993
2 46486  82.4953 291.9091 0022265 197.2638 162.7687 12.42886972270268

Suivez GONETS M 17 en temps réel avec AllMySat

Download on the App Store